Regional Weather Roundup
Issued by NWS

Home | Current Version | Previous Version | Graphics & Text | Print | Product List | Glossary On
Versions: 1 2 3 4 5 6 7 8 9 10 11 12 13 14 15 16 17 18 19 20 21 22 23 24 25 26 27 28 29 30 31 32 33 34 35 36 37 38 39 40 41 42 43 44 45 46 47 48 49 50
000
ASUS43 KLMK 020410
RWRKY
KENTUCKY REGIONAL WEATHER ROUNDUP
NATIONAL WEATHER SERVICE LOUISVILLE KY
1200 AM EDT SAT AUG 02 2014

NOTE "FAIR" INDICATES FEW OR NO CLOUDS BELOW 12,000 FEET
WITH NO SIGNIFICANT WEATHER AND/OR OBSTRUCTIONS TO VISIBILITY.

KYZ001>023-026-027-061>063-070>075-020500-
WESTERN AND SOUTH CENTRAL KENTUCKY

CITY           SKY/WX    TMP DP  RH WIND       PRES   REMARKS
PADUCAH        MOCLDY    71  66  84 SW5       30.05S
HENDERSON      MOCLDY   N/A N/A N/A MISG        N/A
OWENSBORO      PTCLDY    75  64  68 NE5       30.06S
HOPKINSVILLE   PTCLDY    74  60  63 N5        30.05R
BOWLING GREEN  CLEAR     72  56  57 CALM      30.05F
GLASGOW        CLEAR     66  59  79 CALM      30.06S
$$

KYZ024-025-028>034-038-045-046-053-020500-
NORTH CENTRAL KENTUCKY

CITY           SKY/WX    TMP DP  RH WIND       PRES   REMARKS
LOUISVILLE/SDF PTCLDY    74  60  61 N6        30.06R
LOUISVILLE/LOU CLEAR     73  61  65 NW6       30.07R
FORT KNOX      CLEAR     64  62  94 N1        30.06S
$$

KYZ035>037-039>044-047>052-055>060-089>105-020500-
NORTHEAST KENTUCKY

CITY           SKY/WX    TMP DP  RH WIND       PRES   REMARKS
LEXINGTON      CLEAR     71  61  70 CALM      30.08S
COVINGTON      PTCLDY    72  61  68 N7        30.08S
FRANKFORT      PTCLDY    66  61  84 CALM      30.06S
$$

KYZ054-064>069-076>088-106>120-020500-
SOUTHEAST KENTUCKY

CITY           SKY/WX    TMP DP  RH WIND       PRES   REMARKS
JACKSON        MOCLDY    67  65  93 E3        30.10R
LONDON         CLOUDY    70  63  78 CALM      30.09F
SOMERSET       CLEAR     68  66  94 CALM      30.08S
MIDDLESBORO    CLOUDY    69  65  86 CALM      30.10S
MONTICELLO     CLEAR     64  64 100 CALM      30.09R FOG
$$




USA.gov is the U.S. government's official web portal to all federal, state and local government web resources and services.